Florian Broust

Florian Broust

Statistiques 2021

  • Courses courues : 10
  • Nb de victoires : -
  • Nb de places : 1
  • Écart gagnant : 45
  • Réussite à la gagne : -
  • Réussite à la place : 10%
Musique : 8m Dm 7a 4a Dm 3a Dm 8m 6a (20) 9m 8a 0a 6a 2a 4m 7a 5m Da
DateRangCatégorieAlloc.Dist.HippodromeChevalRed. KmSpé.
22/08/20 4 Trot 13 000€ 2 025m Saint Galmier Deve Phil 1'15"9 Attelé
21/08/20 4 Trot 16 000€ 2 700m Divonne Les Bains Eclair de l'Etang 1'17"2 Monté
18/08/20 1 Trot 15 000€ 2 675m Divonne Les Bains Grive de Touchyvon 1'16"5 Monté
07/08/20 D Trot 9 000€ 2 725m Aix Les Bains Check des Brousses Attelé
07/08/20 D Trot 17 000€ 2 000m Aix Les Bains Crevigor Monté
07/08/20 4 Trot 12 000€ 2 025m Aix Les Bains Flore Phil Attelé
05/08/20 7 Trot 9 000€ 2 925m Cagnes Sur Mer Enzo de Taloney 1'17"2 Attelé
29/07/20 5 Trot 19 000€ 2 850m Hyeres Baccarat du Dollar 1'17"6 Monté
29/07/20 7 Trot 17 000€ 2 850m Hyeres Deve Phil 1'17"2 Attelé
27/07/20 0 Trot 18 000€ 2 700m Aix Les Bains Duchesse Danica Attelé
27/07/20 D Trot 12 000€ 2 000m Aix Les Bains Fleuve du Sablier Attelé
27/07/20 D Trot 12 000€ 2 000m Aix Les Bains Gaylor Priory Monté
26/07/20 2 Mixte 14 000€ 2 700m Vittel Dodu de Bois Jaret Attelé
26/07/20 5 Mixte 11 000€ 2 700m Vittel Gambade du Corta Attelé
25/07/20 3 Trot 11 000€ 2 700m Aix Les Bains Fennec Phil Attelé
20/07/20 D Trot 12 000€ 2 000m Aix Les Bains Fais Moi Signe Attelé
15/07/20 0 Trot 14 000€ 2 925m Cagnes Sur Mer Epona de Chenou Attelé
14/07/20 D Trot 18 000€ 2 650m Saint Galmier Carlita Pajelo Monté
14/07/20 D Trot 11 000€ 2 650m Saint Galmier Fauve Eleven Attelé
14/07/20 0 Trot 11 000€ 2 650m Saint Galmier Fennec Phil Attelé
13/07/20 8 Trot 16 000€ 2 850m Hyeres Esperanza de Venzo 1'20"6 Monté
13/07/20 0 Trot 17 000€ 2 650m Hyeres Cybele Phil Attelé
05/07/20 9 Trot 12 000€ 2 675m L'Isle Sur Sorgue Djack Vicapomi 1'23"4 Monté
03/07/20 0 Trot 19 000€ 2 875m Feurs Bolero du Sablier Attelé
30/06/20 8 Trot 17 000€ 2 950m Vichy Geek des Charrons 1'17"6 Monté
29/06/20 5 Trot 19 000€ 2 200m Vichy Foxy du Fer 1'16"1 Monté
28/06/20 6 Trot 20 000€ 2 675m Saint Galmier Donyx d'hague Monté
24/06/20 D Trot 24 000€ 2 975m Vichy Dixit Danica Monté
21/06/20 3 Trot 9 000€ 2 650m Saint Galmier Enzo de Taloney 1'17"4 Attelé
21/06/20 6 Trot 11 000€ 2 675m Saint Galmier Gambade du Corta 1'17"8 Attelé
18/06/20 D Trot 24 000€ 2 950m Vichy Danse Cadence Monté
15/06/20 5 Trot 16 000€ 2 975m Vichy Geek des Charrons 1'17"0 Monté
13/06/20 4 Trot 17 000€ 2 850m Lyon Parilly Et Pourquoi Pas 1'16"3 Attelé
11/06/20 5 Trot 16 000€ 2 100m Lyon Parilly Dali Bourgeois 1'16"1 Monté
10/06/20 5 Trot 11 000€ 2 150m Vichy Chemsak Vedaquais 1'14"8 Attelé
07/06/20 2 Trot 13 000€ 2 875m Feurs Donyx d'hague 1'15"8 Monté
07/06/20 3 Trot 13 000€ 2 850m Feurs Foxy du Fer 1'16"9 Monté
06/06/20 8 Trot 17 000€ 2 650m Marseille Vivaux Doc Erge 1'17"7 Monté
01/06/20 7 Trot 11 000€ 2 850m Lyon Parilly Gambade du Corta 1'19"5 Attelé
31/05/20 D Trot 13 000€ 2 450m Castillonnes Esperanza de Venzo Monté
31/05/20 0 Trot 17 000€ 2 450m Castillonnes Cassiopee du Meyx Attelé
31/05/20 0 Trot 13 000€ 2 450m Castillonnes Elite Speed Attelé
30/05/20 5 Trot 17 000€ 2 975m Vichy Geek des Charrons 1'17"2 Monté
30/05/20 0 Trot 19 000€ 2 800m Vichy Duchesse Danica Attelé
29/05/20 D Trot 28 000€ 3 000m Marseille Borely Divine Beji Monté
27/05/20 0 Trot 15 000€ 2 850m Lyon Parilly Excalibur Debenich Attelé
25/05/20 D Trot 19 000€ 2 650m L'Isle Sur Sorgue Baccarat du Dollar Monté
24/05/20 9 Trot 21 000€ 2 600m Cavaillon Dede la Science 1'18"0 Monté
22/05/20 2 Trot 14 000€ 2 650m Saint Galmier Deve Phil 1'16"3 Attelé
22/05/20 2 Trot 13 000€ 2 675m Saint Galmier Geek des Charrons 1'17"2 Monté